DW8522 Weather Reports


Display with metric or nautical units.
time (UTC)temp
F
wind
direction
speed
MPH
gust
MPH
rain 1hr
in
rain 24hr
in
rain mn
in
humidity
%
barometer
mb
20260506214540 67 98 2.0 12.0 0.00 0.04 0.00 82 1025.9
20260506213027 66 66 3.0 9.0 0.00 0.04 0.00 85 1026.0
20260506211525 65 131 4.0 9.0 0.00 0.04 0.00 86 1026.0
20260506210027 65 113 4.0 9.0 0.00 0.04 0.00 88 1026.1
20260506204520 64 79 4.0 11.0 0.00 0.13 0.00 89 1026.2
20260506203020 63 95 2.0 8.0 0.00 0.13 0.00 91 1026.1
20260506201518 64 88 1.0 6.0 0.00 0.13 0.00 93 1026.0
20260506200018 63 98 1.0 4.0 0.00 0.13 0.00 95 1025.8
20260506194517 63 101 0.0 3.0 0.00 0.17 0.00 95 1025.8
20260506193015 62 116 0.0 2.0 0.00 0.17 0.00 96 1025.8
20260506191515 63 118 0.0 4.0 0.00 0.17 0.00 96 1025.9
20260506190015 62 104 0.0 1.0 0.00 0.17 0.00 96 1025.7
20260506184524 62 105 0.0 1.0 0.00 0.19 0.00 96 1025.7
20260506183021 62 105 0.0 1.0 0.00 0.19 0.00 96 1025.7
20260506181514 62 104 0.0 1.0 0.00 0.19 0.00 96 1025.7
20260506180010 62 104 0.0 1.0 0.00 0.19 0.00 96 1025.8
20260506174509 62 99 0.0 1.0 0.00 0.24 0.00 96 1025.8
20260506173008 62 99 0.0 2.0 0.00 0.24 0.00 96 1026.0
20260506171508 62 124 0.0 1.0 0.00 0.24 0.00 96 1025.9
20260506170007 62 117 0.0 1.0 0.00 0.24 0.00 96 1025.9
20260506164509 62 117 0.0 1.0 0.00 0.24 0.00 96 1025.9
20260506163004 62 117 0.0 1.0 0.00 0.24 0.00 95 1025.9
20260506161503 62 117 0.0 1.0 0.00 0.24 0.00 95 1026.0
20260506160002 62 119 0.0 1.0 0.00 0.24 0.00 95 1026.0
20260506154604 62 117 0.0 1.0 0.00 0.24 0.00 95 1026.2
20260506153113 62 117 0.0 1.0 0.00 0.24 0.00 95 1026.3
20260506151556 62 117 0.0 1.0 0.00 0.24 0.00 94 1026.5
20260506150100 62 115 0.0 1.0 0.00 0.24 0.00 94 1026.7
20260506144557 62 114 0.0 1.0 0.00 0.24 0.00 93 1026.8
20260506143049 62 114 0.0 1.0 0.00 0.24 0.00 92 1027.1
20260506141545 63 114 0.0 1.0 0.00 0.24 0.00 92 1027.2
20260506140043 64 114 0.0 2.0 0.00 0.24 0.00 92 1027.4
20260506134541 64 122 0.0 1.0 0.00 0.25 0.00 92 1027.5
20260506133042 64 123 0.0 1.0 0.00 0.25 0.00 92 1027.6
20260506131541 64 122 0.0 1.0 0.00 0.25 0.00 92 1027.7
20260506130039 64 107 0.0 2.0 0.00 0.25 0.00 93 1027.6
20260506124537 64 108 0.0 1.0 0.00 0.25 0.00 92 1027.6
20260506123037 64 101 0.0 2.0 0.00 0.25 0.00 93 1027.7
20260506121535 64 107 0.0 2.0 0.00 0.25 0.00 93 1027.7
20260506120038 64 105 0.0 3.0 0.00 0.25 0.00 94 1027.6
20260506114545 64 102 1.0 4.0 0.00 0.25 0.25 94 1027.7
20260506113039 64 127 0.0 3.0 0.00 0.25 0.25 95 1027.7
20260506111532 63 129 0.0 2.0 0.00 0.25 0.25 95 1027.8
20260506110030 62 113 0.0 3.0 0.00 0.25 0.25 96 1027.9
20260506104533 61 117 0.0 1.0 0.00 0.25 0.25 95 1028.0
20260506103029 62 117 0.0 5.0 0.00 0.25 0.25 96 1028.1
20260506101528 61 132 0.0 1.0 0.00 0.25 0.25 96 1028.1
20260506100027 61 133 0.0 2.0 0.00 0.25 0.25 95 1028.1
20260506094528 61 132 0.0 1.0 0.00 0.25 0.25 95 1028.0
20260506093026 61 132 0.0 1.0 0.00 0.25 0.25 95 1028.2
20260506091525 61 132 0.0 0.0 0.00 0.25 0.25 95 1028.4
20260506090026 61 132 0.0 1.0 0.00 0.25 0.25 95 1028.3
20260506084524 61 132 0.0 1.0 0.00 0.25 0.25 95 1028.3
20260506083023 61 132 0.0 2.0 0.00 0.25 0.25 95 1028.4
20260506081523 61 132 0.0 1.0 0.00 0.25 0.25 95 1028.4
20260506073022 61 132 0.0 1.0 0.00 0.25 0.25 94 1028.3
20260506071520 61 132 0.0 1.0 0.00 0.25 0.25 94 1028.4
20260506061518 62 133 0.0 1.0 0.01 0.25 0.25 93 1028.1
20260506044514 65 115 0.0 3.0 0.00 0.24 0.24 87 1027.9
20260506043015 67 128 0.0 4.0 0.00 0.24 0.24 86 1027.9
20260506041510 68 123 2.0 6.0 0.00 0.24 0.24 84 1028.0
20260506040012 69 113 1.0 4.0 0.00 0.24 0.24 82 1028.0
20260506034518 69 97 0.0 3.0 0.00 0.24 0.24 82 1028.2
20260506033006 69 113 1.0 3.0 0.00 0.24 0.24 82 1028.2
20260506031504 69 105 1.0 4.0 0.00 0.24 0.24 81 1028.2
20260506030011 69 101 1.0 3.0 0.00 0.24 0.24 83 1028.1
20260506024619 69 105 0.0 5.0 0.00 0.24 0.24 84 1028.1
20260506023057 69 98 1.0 4.0 0.00 0.24 0.24 82 1028.2
20260506021557 68 105 1.0 3.0 0.00 0.24 0.24 84 1028.2
20260506020052 68 117 0.0 4.0 0.00 0.24 0.24 84 1028.3
20260506014552 68 117 1.0 4.0 0.00 0.24 0.24 83 1028.4
20260506013102 69 108 1.0 4.0 0.00 0.24 0.24 84 1028.3
20260506011549 68 113 2.0 4.0 0.00 0.24 0.24 85 1028.4
20260506010042 68 121 1.0 3.0 0.00 0.24 0.24 90 1028.6
20260506004537 67 84 1.0 3.0 0.00 0.24 0.24 94 1028.9
20260506003035 65 110 0.0 3.0 0.00 0.24 0.24 96 1028.9
20260506001532 64 121 0.0 2.0 0.00 0.24 0.24 96 1029.3
20260506000028 64 120 0.0 2.0 0.01 0.24 0.24 95 1029.8
20260505234534 65 123 0.0 1.0 0.02 0.24 0.24 96 1029.8
20260505233026 64 122 0.0 2.0 0.02 0.24 0.24 96 1029.8
20260505231523 63 120 0.0 2.0 0.02 0.24 0.24 97 1029.9
20260505230038 63 119 0.0 1.0 0.02 0.24 0.24 97 1030.2
20260505224522 63 118 0.0 2.0 0.02 0.23 0.23 97 1030.3
20260505223019 62 118 0.0 1.0 0.01 0.22 0.22 97 1030.2
20260505221519 62 118 0.0 1.0 0.01 0.22 0.22 97 1030.3
20260505220016 62 119 0.0 2.0 0.00 0.21 0.21 97 1030.4